Location: Oshawa
(43.9000°N, 78.8670°W)
Time: 06:09:45
(UTC-05:00)

PAYLOAD A - Visible Passes

Search period start: 24 January 2017 00:00
Search period end: 03 February 2017 00:00
Orbit: 692 x 832 km, 98.2° (Epoch: 23 January)

Date Brightness Start Highest point End Pass type
(mag) Time Alt. Az. Time Alt. Az. Time Alt. Az.
24 Jan 4.9 05:50:18 10° NNE 05:55:04 47° E 05:59:40 10° S visible
24 Jan 7.2 18:46:46 10° SW 18:49:52 15° W 18:52:57 10° NW visible
25 Jan 6.4 05:13:26 10° NE 05:17:08 21° E 05:20:45 10° SE visible
25 Jan 4.2 06:51:39 10° N 06:56:21 45° WNW 07:00:53 10° SW visible
25 Jan 6.2 18:07:04 10° SSW 18:11:53 32° W 18:16:39 10° NNW visible
26 Jan 4.0 06:13:51 10° NNE 06:18:48 81° ESE 06:23:33 10° S visible
27 Jan 5.5 05:36:32 10° NNE 05:41:00 35° E 05:45:20 10° SSE visible
27 Jan 7.0 18:31:53 10° SW 18:35:47 20° W 18:39:39 10° NW visible
28 Jan 6.8 05:00:08 10° NE 05:02:59 15° E 05:05:47 10° SE visible
28 Jan 3.9 06:37:36 10° N 06:42:25 60° WNW 06:47:04 10° SSW visible
28 Jan 5.6 17:52:48 10° S 17:57:53 42° W 18:02:53 10° NNW visible
29 Jan 4.4 05:59:57 10° NNE 06:04:47 60° E 06:09:25 10° S visible
29 Jan 7.4 18:57:48 10° WSW 18:59:46 12° W 19:01:42 10° WNW visible
30 Jan 6.1 05:22:53 10° NE 05:26:54 26° E 05:30:49 10° SSE visible
30 Jan 4.4 07:01:32 10° N 07:05:56 36° WNW 07:10:14 10° SW visible
30 Jan 6.6 18:17:17 10° SSW 18:21:44 26° W 18:26:05 10° NW visible
31 Jan 7.2 04:47:30 10° ENE 04:48:48 11° E 04:50:07 10° ESE visible
31 Jan 3.8 06:23:36 10° NNE 06:28:27 81° WNW 06:33:09 10° SSW visible
01 Feb 5.1 05:46:07 10° NNE 05:50:43 43° E 05:55:11 10° S visible
01 Feb 7.2 18:42:28 10° SW 18:45:39 16° W 18:48:48 10° NW visible
02 Feb 6.5 05:09:22 10° NE 05:12:46 19° E 05:16:06 10° SE visible
02 Feb 4.1 06:47:25 10° N 06:52:01 47° WNW 06:56:31 10° SW visible
02 Feb 6.1 18:02:53 10° SSW 18:07:41 34° W 18:12:23 10° NNW visible
